Regional Weather Roundup
Issued by NWS

Home | Current Version | Previous Version | Graphics & Text | Print | Product List | Glossary On
Versions: 1 2 3 4 5 6 7 8 9 10 11 12 13 14 15 16 17 18 19 20 21 22 23 24 25 26 27 28 29 30 31 32 33 34 35 36 37 38 39 40 41 42 43 44 45 46 47 48 49 50
017
ASUS43 KMPX 250810
RWRMN
WEATHER ROUNDUP FOR MINNESOTA
NATIONAL WEATHER SERVICE TWIN CITIES/CHANHASSEN MN
300 AM CDT SUN SEP 25 2016


NOTE: "FAIR" INDICATES FEW OR NO CLOUDS BELOW 12,000 FEET WITH NO
SIGNIFICANT WEATHER AND/OR OBSTRUCTIONS TO VISIBILITY. N/A MEANS
CURRENT SKY AND/OR WEATHER CONDITIONS ARE NOT AVAILABLE.

MNZ060>063-068>070-250900-
   Twin Cities Metro

CITY           SKY/WX    TMP DP  RH WIND       PRES   REMARKS
TWIN CITIES    CLOUDY    68  65  90 SE12      29.93F
ST PAUL        CLOUDY    68  64  87 SE10      29.94F
CRYSTAL        LGT RAIN  68  63  84 SE10      29.90F
BLAINE         MOCLDY    70  68  94 SE13      29.92F
LAKEVILLE      CLOUDY    66  66 100 SE6       29.94F FOG
EDEN PRAIRIE   MOCLDY    69  66  90 SE13      29.91F FOG
LAKEVILLE      CLOUDY    66  66 100 SE6       29.94F FOG
SOUTH ST PAUL  CLOUDY    68  65  91 SE7       29.94F
LAKE ELMO      DRIZZLE   68  64  88 SE9       29.96F
$$
MNZ001>005-007-008-013>017-022>024-027-028-250900-
   Northwest Minnesota

CITY           SKY/WX    TMP DP  RH WIND       PRES   REMARKS
BEMIDJI        CLOUDY    65  63  94 S9        29.82F
HALLOCK        CLOUDY    66  64  94 S15       29.71S
ROSEAU         CLOUDY    66  61  82 S13G21    29.77S
WARROAD        CLOUDY    64  61  88 S14       29.79S
THIEF RVR FALL MOCLDY    66  64  93 S12       29.77F
CROOKSTON      PTCLDY    64  64 100 S14       29.76F
FOSSTON        CLOUDY    66  63  88 S10       29.80F
DETROIT LAKES  CLOUDY    66  64  94 S9        29.82S
MOORHEAD       CLEAR     64  63  94 S7        29.80S
PARK RAPIDS    LGT RAIN  66  63  90 S17       29.83F FOG
MAHNOMEN       CLOUDY    66  65  94 S8        29.80S
$$
MNZ006-009>011-018-025>026-250900-
   North Central Minnesota

CITY           SKY/WX    TMP DP  RH WIND       PRES   REMARKS
BAUDETTE       CLOUDY    63  62  97 SE13      29.81F FOG
FLAG ISLAND    CLOUDY    63  61  94 SE17      29.77F
INTL FALLS     CLOUDY    64  60  87 SE7       29.87F
WASKISH        RAIN      64  63  94 SE7       29.83F
BIG FORK       LGT RAIN  63  61  94 SE9       29.88F
GRAND RAPIDS   LGT RAIN  62  61  96 SE9       29.92F FOG
COOK           HVY RAIN  63  59  88 SE8       29.94S
WALKER         CLOUDY    64  63  95 SE12      29.84F
$$
MNZ012-019>021-037-250900-
   Northeast Minnesota

CITY           SKY/WX    TMP DP  RH WIND       PRES   REMARKS
DULUTH         LGT RAIN  61  59  93 SE7       29.97F
ELY            CLOUDY    61  55  82 SE7       29.95F
HIBBING        LGT RAIN  60  59  96 SE8       29.93F
EVELETH        RAIN      60  58  94 SE6       29.96F
DULUTH HARBOR  LGT RAIN  59  57  94 NE6       29.97F
TWO HARBORS    CLOUDY    63  57  82 E6        29.97F
SILVER BAY     CLOUDY    61  57  88 E3        29.98F
GRAND MARAIS     N/A     62  58  86 NE5       30.02F
G MARAIS ARPRT CLOUDY    57  52  82 SE5       30.05F
$$
MNZ029>031-032-039>041-046>048-054>057-064-250900-
   West Central Minnesota

CITY           SKY/WX    TMP DP  RH WIND       PRES   REMARKS
FERGUS FALLS   PTCLDY    66  66 100 SW14      29.84S
MORRIS         CLOUDY    66  66 100 SW16      29.84R
ALEXANDRIA     CLOUDY    67  67 100 S10       29.85F
ELBOW LAKE     CLOUDY    67  66  98 W12G20    29.84R
GLENWOOD       CLOUDY    66  66 100 S10       29.86S FOG
BENSON         MOCLDY    66  64  94 SW8       29.85R
MADISON          N/A     63  57  82 W8        29.89R
WILLMAR        LGT RAIN  66  66 100 S5        29.88S
$$
MNZ033>034-036-042>043-049>051-058-059-250900-
   Central Minnesota

CITY           SKY/WX    TMP DP  RH WIND       PRES   REMARKS
ST CLOUD       CLOUDY    67  66  97 SE15      29.87F
SAUK CENTRE    CLOUDY    66  65  97 S10       29.86F
PAYNESVILLE    LGT RAIN  67  67 100 S12       29.87F
AITKIN         MIX PCPN  66  61  82 SE14G22   29.88F
PINE RIVER     CLOUDY    64  64 100 SE12G18   29.89F FOG
BRAINERD       CLOUDY    65  64  97 SE13      29.87F FOG
STAPLES        CLOUDY    64  64 100 SE9       29.84F FOG
LONG PRAIRIE   CLOUDY    64  64 100 SE10      29.85F
LITTLE FALLS   RAIN      64  63  94 SE9       29.86F
LITCHFIELD     CLOUDY    70  68  94 S6        29.89F
BUFFALO        CLOUDY    68  64  87 SE10G16   29.90F
MAPLE LAKE     RAIN      69  67  93 S6        29.90F
HUTCHINSON     CLOUDY    69  67  95 S9        29.90F
$$
MNZ037-044-045-052-053-250900-
   East Central Minnesota

CITY           SKY/WX    TMP DP  RH WIND       PRES   REMARKS
PRINCETON      RAIN      68  64  88 SE8       29.90F
MORA           CLOUDY    64  63  94 SE7       29.94F
CAMBRIDGE      CLOUDY    68  63  83 SE7       29.91F
MOOSE LAKE     CLOUDY    63  59  88 SE3       29.92F
HINCKLEY       RAIN      64  63  94 SE6       29.95S
CLOQUET        CLOUDY    61  59  94 SE3       29.96F FOG
MCGREGOR       CLOUDY    63  61  94 SE9       29.92F
$$
MNZ071>073-080-081-089-090-097-098-250900-
   Southwest Minnesota

CITY           SKY/WX    TMP DP  RH WIND       PRES   REMARKS
MONTEVIDEO     CLOUDY    66  66 100 SW7       29.88R
GRANITE FALLS  RAIN      68  65  91 S8        29.89R
CANBY          CLOUDY    60  51  72 SW12G18   29.91R
MARSHALL       CLOUDY    68  66  93 SW9       29.89R
REDWOOD FALLS  LGT RAIN  69  66  90 S10       29.88S
OLIVIA         CLOUDY    70  68  94 S8        29.87F
PIPESTONE      CLOUDY    61  46  59 NW17G25   29.95R
WINDOM         LGT RAIN  68  66  94 S12       29.93R
WORTHINGTON    LGT RAIN  66  63  90 S6        29.93F
JACKSON        CLOUDY    68  64  88 S7        29.94F
TRACY          DRIZZLE   69  67  95 S9        29.89F
$$
MNZ065>067-074>077-082>085-091>093-250900-
   South Central Minnesota

CITY           SKY/WX    TMP DP  RH WIND       PRES   REMARKS
MANKATO        CLOUDY    68  66  93 S8        29.93F
ST JAMES       CLOUDY    68  64  88 S9        29.93S
FAIRMONT       CLOUDY    67  65  93 S10       29.94F
GLENCOE        CLOUDY    70  69  98 S8        29.90F
FARIBAULT      LGT RAIN  68  66  94 SE7       29.95F
OWATONNA       LGT RAIN  70  64  83 S12       29.96F
WASECA         DRIZZLE   68  64  88 S3        29.96F
ALBERT LEA     CLOUDY    66  66 100 S9        29.97R
$$
MNZ078>079-086>088-094>096-250900-
   Southeast Minnesota

CITY           SKY/WX    TMP DP  RH WIND       PRES   REMARKS
ROCHESTER      RAIN      67  66  97 SE14G21   29.97F FOG
RED WING       CLOUDY    70  64  83 SE10      29.95F
DODGE CENTER   DRIZZLE   66  64  94 S8        29.97F
WINONA         CLOUDY    64  61  88 SE7       30.01F
AUSTIN         RAIN      66  64  94 SE6       29.97S
PRESTON        TSTM      65  63  91 SE15G23   30.00F
$$
ABBREVIATIONS USED IN REMARKS
   TC - TEMPERATURES IN CELSIUS
  WCI - WIND CHILL INDEX
   HX - HEAT INDEX
  VSB - VISIBILITY
$$




USA.gov is the U.S. government's official web portal to all federal, state and local government web resources and services.